{"data":{"norad_id":62243,"intl_designator":"2024-232G","name":"QIANFAN-42","alt_names":[],"object_type":"PAYLOAD","status":"ACTIVE","operator":null,"country":"PRC","launch_date":"2024-12-05","launch_site_code":"TAISC","launch_vehicle":null,"mission":null,"orbit_class":"UNKNOWN","rcs_meters":null,"size_class":null,"mass_kg":null,"dimensions":null,"purposes":[],"wikipedia_slug":null,"has_3d_model":false,"image_url":null,"decayed_at":null,"tle_current":{"epoch":"2026-09-22T19:52:17.244768Z","epoch_age_seconds":109039,"freshness":"FRESH","line1":"1 62243U 24232G   26265.82797737  .00000303  00000+0  12407-3 0  9993","line2":"2 62243  89.0142   5.0706 0013403 228.2763 131.7284 14.24650449141812","mean_motion":14.24650449,"eccentricity":0.0013403,"inclination_deg":89.0142,"raan_deg":5.0706,"arg_perigee_deg":228.2763,"mean_anomaly_deg":131.7284,"bstar":0.00012407,"rev_number":14181,"period_min":101.07742576509,"perigee_km":800.0343275369,"apogee_km":819.30195800261,"semimajor_km":7187.8051427698,"source":"CELESTRAK","updated_at":"2026-09-23T09:00:21.308269Z"}}}